Location: Casteau
(50.5142°N, 4.0161°E)
Time: 21:01:07
(UTC+00:00)

Tiros 1 - Pass Details

Date: 08 August 2021
Orbit: 630 x 663 km, 48.4° (Epoch: 28 September)

Event Time Altitude Azimuth Distance (km) Brightness Sun altitude
Rises 21:03:51 0° 280° (W) 2,979 11.4 -14.3°
Reaches altitude 10° 21:06:47 10° 262° (W) 2,058 10.2 -14.6°
Maximum altitude 21:10:04 19° 218° (SW) 1,545 9.0 -15.0°
Enters shadow 21:12:06 15° 187° (S) 1,752 9.0 -15.2°
Drops below altitude 10° 21:13:19 10° 174° (S) 2,036 - -15.3°
Sets 21:16:12 0° 156° (SSE) 2,934 - -15.6°
